#timestamp,LO_Frequency,Hit 
1501048815.1,286046996.4,N
1501048835.8,286046995.3,N
1501048855.7,286046998.2,N
1501048875.5,286046999.3,N
1501048895.3,286046998.2,N
1501048915.2,286046999.5,N
1501048935.9,286047002.8,N
1501048955.7,286047000.0,N
1501048975.6,286046998.4,N
1501048995.4,286046997.5,N
1501049015.2,286046998.1,N
1501049035.0,286046995.2,N
1501049035.9,286046995.2,N
1501049055.8,286046992.7,N
1501049075.6,286046992.9,N
1501049095.4,286046993.5,N
1501049115.3,286046992.4,N
1501049135.1,286046990.2,N
1501049155.8,286046991.1,N
1501049175.7,286046989.2,N
1501049195.5,286046991.3,N
1501049215.3,286046988.8,N
1501049235.2,286046988.0,Y
1501049255.9,286046987.6,Y
1501049275.7,286046988.4,N
1501049295.6,286046985.3,Y
1501049315.4,286046989.9,N
1501049335.2,286046989.3,N
1501049355.1,286046990.0,N
1501049356.0,286046990.0,N
1501049375.8,286046990.0,N
1501049395.6,286046987.7,N
1501049415.5,286046988.4,N
1501049435.3,286046984.4,Y
1501049455.1,286046987.4,N
1501049475.9,286046986.6,N
1501049495.7,286046982.7,Y
1501049515.5,286046986.8,N
1501049535.4,286046988.0,N
1501049555.2,286046986.9,N
1501049575.0,286046986.9,N
1501049575.9,286046986.9,N
1501049595.8,286046991.4,N
1501049615.6,286046987.1,N
1501049635.4,286046989.0,N
1501049655.3,286046989.6,N
1501049675.1,286046989.8,N
1501049676.0,286046989.8,N
1501049695.8,286046989.3,N
1501049715.7,286046988.9,N
1501049735.5,286046993.2,N
1501049755.3,286046994.7,N
1501049775.2,286046992.1,N
1501049795.9,286046990.4,N
1501049815.7,286046990.8,N
1501049835.5,286046989.3,N
1501049855.4,286046990.3,N
1501049875.2,286046993.2,N
1501049895.0,286046991.3,N
1501049895.9,286046991.3,N
1501049915.8,286046992.5,N
1501049935.6,286046990.1,N
1501049955.4,286046990.4,N
1501049975.3,286046989.6,N
1501049995.1,286046989.3,N
1501049996.0,286046989.3,N
1501050015.8,286046987.3,N
1501050035.7,286046988.4,N
1501050055.5,286046988.1,N
1501050075.3,286046989.3,N
1501050095.1,286046985.8,N
1501050115.9,286046988.4,N
1501050135.7,286046989.8,N
1501050155.5,286046989.8,N
1501050175.4,286046987.3,N
1501050195.2,286046986.0,N
1501050215.0,286046987.5,N
1501050215.9,286046987.5,N
1501050235.8,286046987.1,N
1501050255.6,286046990.8,N
1501050275.4,286046985.4,N
1501050295.3,286046982.5,Y
1501050315.1,286046984.8,N
1501050335.8,286046985.5,N
1501050355.7,286046987.4,N
1501050375.5,286046991.5,N
1501050395.3,286046990.4,N
1501050415.2,286046992.2,N
1501050435.9,286046990.1,N
1501050455.7,286046992.9,N
1501050475.6,286046990.4,N
1501050495.4,286046994.4,N
1501050515.2,286046996.3,N
1501050535.0,286046994.6,N
1501050535.9,286046994.6,N
1501050555.8,286046993.0,N
1501050575.6,286046994.5,N
1501050595.4,286046991.7,N
1501050615.3,286046993.8,N
1501050635.1,286046994.6,N
1501050655.8,286046992.8,N
1501050675.7,286046992.1,N
1501050695.5,286046991.8,N
1501050715.3,286046993.6,N
1501050735.2,286046995.4,N
1501050755.9,286046997.9,N
1501050775.7,286046996.1,N
1501050795.5,286046996.0,N
1501050815.4,286046997.8,N
1501050835.2,286046995.6,N
1501050855.0,286046997.3,N
1501050855.9,286046997.3,N
1501050875.8,286046996.3,N
1501050895.6,286046991.7,N
1501050915.4,286046991.7,N
1501050935.3,286046992.1,N
1501050955.1,286046994.7,N
1501050956.0,286046994.7,N
1501050975.8,286046992.2,N
1501050995.7,286046995.8,N
1501051015.5,286046997.4,N
1501051035.3,286046998.3,N
1501051055.1,286046998.4,N
1501051075.9,286046996.1,N
1501051095.7,286046997.7,N
1501051115.5,286046993.4,N
1501051135.4,286046994.4,N
1501051155.2,286046995.7,N
1501051175.0,286046992.4,N
1501051175.9,286046992.4,N
1501051195.8,286046991.1,N
1501051215.6,286046989.2,N
1501051235.4,286046994.2,N
1501051255.3,286046992.1,N
1501051275.1,286046991.4,N
1501051276.0,286046991.4,N
1501051295.8,286046992.2,N
1501051315.7,286046992.3,N
1501051335.5,286046990.6,N
1501051355.3,286046988.0,N
1501051375.1,286046987.7,N
1501051395.9,286046989.8,N
1501051415.7,286046989.5,N
1501051435.5,286046989.2,N
1501051455.4,286046992.7,N
1501051475.2,286046994.5,N
1501051495.0,286046993.0,N
1501051495.9,286046993.0,N
1501051515.8,286046993.0,N
1501051535.6,286046990.6,N
1501051555.4,286046990.5,N
1501051575.3,286046992.4,N
1501051595.1,286046993.0,N
1501051596.0,286046993.0,N
1501051615.8,286046996.4,N
1501051635.6,286046995.8,N
1501051655.5,286046996.0,N
1501051675.3,286046996.0,N
1501051695.1,286046992.2,N
1501051715.9,286046992.3,N
1501051735.7,286046996.4,N
1501051755.5,286046994.7,N
1501051775.4,286046994.4,N
1501051795.2,286046994.7,N
1501051815.0,286046994.2,N
1501051835.6,286046993.6,N
1501051855.4,286046993.0,N
1501051875.2,286046988.6,N
1501051895.0,286046989.4,N
1501051895.9,286046989.4,N
1501051915.8,286046990.5,N
1501051935.6,286046993.2,N
1501051955.4,286046990.1,N
1501051975.3,286046988.9,N
1501051995.1,286046988.7,N
1501052015.8,286046992.7,N
1501052035.7,286046992.5,N
1501052055.5,286046991.0,N
1501052075.3,286046990.6,N
1501052095.2,286046990.7,N
1501052115.9,286046990.3,N
1501052135.7,286046992.8,N
1501052155.6,286046990.1,N
1501052175.4,286046991.1,N
1501052195.2,286046989.1,N
1501052215.1,286046985.4,Y
1501052216.0,286046985.4,Y
1501052235.8,286047003.7,N
1501052255.6,286047006.9,N
1501052275.5,286047005.2,N
1501052295.3,286047003.4,N
1501052315.1,286046999.8,N
1501052335.9,286047004.1,N
1501052355.7,286047002.6,N
1501052375.5,286047003.0,N
1501052395.3,286047004.5,N
